This demonstration page uses our WeatherBlox Daily Observations layout. Learn more.

Left ArrowRight Arrow

Hourly Observations for June 9, 2017

Temp ( °F °C ) Dew Point ( °F °C ) Humidity (%) Winds ( mph kmh ) Pressure ( in mb ) Visibility ( mi km ) Precip ( " mm )
12:15 am 00:15 Clear 67 19.5 58 14.6 73 73 S 10 17 29.83 1010 10 16.0934 0 0
12:35 am 00:35 Clear 67 19.5 58 14.6 73 73 S 9 15 29.83 1010 10 16.0934 0 0
12:55 am 00:55 Clear 66 19 58 14.7 76 76 S 9 15 29.8 1009 10 16.0934 0 0
1:15 am 01:15 Clear 65 18.6 58 14.7 78 78 SSW 7 11 29.8 1009 10 16.0934 0 0
1:35 am 01:35 Clear 65 18.1 58 14.6 80 80 S 7 11 29.83 1010 10 16.0934 0 0
1:55 am 01:55 Clear 64 18 58 14.5 80 80 S 8 13 29.83 1010 10 16.0934 0 0
2:15 am 02:15 Clear 64 17.5 58 14.5 83 83 S 8 13 29.83 1010 10 16.0934 0 0
2:35 am 02:35 Clear 63 17.2 57 14.1 82 82 S 9 15 29.83 1010 10 16.0934 0 0
2:55 am 02:55 Clear 63 17 58 14.2 84 84 SSW 8 13 29.83 1010 10 16.0934 0 0
3:15 am 03:15 Clear 62 16.6 57 14 85 85 SSW 7 11 29.8 1009 10 16.0934 0 0
3:35 am 03:35 Clear 62 16.7 57 14 84 84 SSW 8 13 29.8 1009 10 16.0934 0 0
3:55 am 03:55 Clear 63 17 57 13.9 82 82 SSW 8 13 29.8 1009 10 16.0934 0 0
4:15 am 04:15 Clear 61 16.3 57 13.8 85 85 SSW 5 7 29.8 1009 10 16.0934 0 0
4:35 am 04:35 Clear 61 16.2 57 13.8 86 86 S 6 9 29.8 1009 10 16.0934 0 0
4:55 am 04:55 Clear 61 16 56 13.5 85 85 S 6 9 29.8 1009 10 16.0934 0 0
5:15 am 05:15 Clear 60 15.8 56 13.5 86 86 SSW 7 11 29.8 1009 10 16.0934 0 0
5:35 am 05:35 Clear 60 15.8 56 13.5 86 86 SSW 7 11 29.8 1009 10 16.0934 0 0
5:55 am 05:55 Clear 60 15.5 56 13.4 87 87 SSW 8 13 29.8 1009 10 16.0934 0 0
6:15 am 06:15 Sunny 60 15.6 56 13.5 87 87 S 8 13 29.8 1009 10 16.0934 0 0
6:35 am 06:35 Sunny 60 15.8 56 13.5 86 86 S 8 13 29.8 1009 10 16.0934 0 0
6:55 am 06:55 Sunny 61 16.2 56 13.5 84 84 S 8 13 29.8 1009 10 16.0934 0 0
7:15 am 07:15 Sunny 62 16.6 56 13.5 82 82 S 8 13 29.8 1009 10 16.0934 0 0
7:35 am 07:35 Sunny 63 17.4 57 13.7 79 79 S 9 15 29.83 1010 10 16.0934 0 0
7:55 am 07:55 Sunny 65 18.1 56 13.5 75 75 S 10 17 29.83 1010 10 16.0934 0 0
8:15 am 08:15 Sunny 66 19 56 13.5 71 71 SSW 10 17 29.77 1008 10 16.0934 0 0
8:35 am 08:35 Sunny 68 20.1 55 13 64 64 S 12 19 29.77 1008 10 16.0934 0 0
8:55 am 08:55 Sunny 70 21.1 55 13 60 60 S 13 20 29.77 1008 10 16.0934 0 0
9:15 am 09:15 Sunny 72 22 56 13.3 58 58 SSW 16 26 29.74 1007 10 16.0934 0 0
9:35 am 09:35 Sunny 73 22.5 56 13.4 57 57 SSW 16 26 29.74 1007 10 16.0934 0 0
9:55 am 09:55 Sunny 74 23.2 57 13.7 55 55 SSW 17 28 29.74 1007 10 16.0934 0 0
10:15 am 10:15 Sunny 75 23.8 57 13.9 54 54 SSW 13 20 29.74 1007 10 16.0934 0 0
10:35 am 10:35 Sunny 77 24.9 58 14.5 53 53 SSW 16 26 29.74 1007 10 16.0934 0 0
10:55 am 10:55 Sunny 77 25.1 58 14.3 51 51 SSW 16 26 29.68 1005 10 16.0934 0 0
11:15 am 11:15 Sunny 78 25.5 58 14.7 51 51 S 17 28 29.68 1005 10 16.0934 0 0
11:35 am 11:35 Sunny 79 26.1 59 14.9 50 50 S 18 30 29.68 1005 10 16.0934 0 0
11:55 am 11:55 Sunny 80 26.9 59 15 48 48 S 18 30 29.68 1005 10 16.0934 0 0
12:15 pm 12:15 Sunny 81 27.2 59 15.1 48 48 SSW 18 30 29.68 1005 10 16.0934 0 0
12:35 pm 12:35 Sunny 82 27.6 60 15.3 47 47 S 16 26 29.68 1005 10 16.0934 0 0
12:55 pm 12:55 Sunny 82 28 59 15.1 45 45 SSW 18 30 29.68 1005 10 16.0934 0 0
1:15 pm 13:15 Sunny 84 28.7 60 15.7 45 45 S 18 30 29.62 1003 10 16.0934 0 0
1:35 pm 13:35 Sunny 84 28.7 59 15.2 44 44 SSW 20 31 29.62 1003 10 16.0934 0 0
1:55 pm 13:55 Sunny 84 29 60 15.3 43 43 S 20 31 29.62 1003 10 16.0934 0 0
2:15 pm 14:15 Partly Cloudy 85 29.6 59 14.8 41 41 S 20 31 29.62 1003 10 16.0934 0 0
2:35 pm 14:35 Sunny 85 29.5 59 15.1 42 42 S 16 26 29.62 1003 10 16.0934 0 0
2:55 pm 14:55 Sunny 86 30 59 14.9 40 40 S 21 33 29.62 1003 10 16.0934 0 0
3:15 pm 15:15 Partly Cloudy 86 29.9 59 14.9 40 40 S 21 33 29.62 1003 10 16.0934 0 0
3:35 pm 15:35 Partly Cloudy 87 30.3 59 15.1 40 40 SSW 22 35 29.62 1003 10 16.0934 0 0
3:55 pm 15:55 Partly Cloudy 87 30.4 59 14.8 39 39 S 20 31 29.59 1002 10 16.0934 0 0
4:15 pm 16:15 Partly Cloudy 87 30.5 58 14.6 38 38 SSW 18 30 29.59 1002 10 16.0934 0 0
4:35 pm 16:35 Sunny 87 30.7 59 14.9 38 38 S 21 33 29.59 1002 10 16.0934 0 0
4:55 pm 16:55 Sunny 87 30.8 58 14.7 38 38 S 17 28 29.56 1001 10 16.0934 0 0
5:15 pm 17:15 Sunny 87 30.8 58 14.3 37 37 SSW 20 31 29.56 1001 10 16.0934 0 0
5:35 pm 17:35 Sunny 87 30.8 57 14.1 36 36 S 18 30 29.56 1001 10 16.0934 0 0
5:55 pm 17:55 Sunny 87 30.5 58 14.6 38 38 SSW 22 35 29.56 1001 10 16.0934 0 0
6:15 pm 18:15 Sunny 87 30.3 58 14.6 38 38 SSW 23 37 29.53 1000 10 16.0934 0 0
6:35 pm 18:35 Sunny 87 30.3 58 14.3 38 38 SSW 24 39 29.53 1000 10 16.0934 0 0
6:55 pm 18:55 Sunny 86 30.1 58 14.6 39 39 S 20 31 29.53 1000 10 16.0934 0 0
7:15 pm 19:15 Sunny 86 29.8 58 14.7 40 40 S 17 28 29.53 1000 10 16.0934 0 0
7:35 pm 19:35 Sunny 84 29 59 14.8 42 42 S 17 28 29.53 1000 10 16.0934 0 0
7:55 pm 19:55 Sunny 83 28.5 59 15 44 44 S 17 28 29.53 1000 10 16.0934 0 0
8:15 pm 20:15 Sunny 82 28 60 15.4 46 46 S 17 28 29.53 1000 10 16.0934 0 0
8:35 pm 20:35 Sunny 82 27.5 60 15.5 48 48 S 14 22 29.53 1000 10 16.0934 0 0
8:55 pm 20:55 Sunny 81 27 60 15.6 50 50 S 13 20 29.56 1001 10 16.0934 0 0
9:15 pm 21:15 Clear 80 26.4 60 15.5 51 51 S 14 22 29.56 1001 10 16.0934 0 0
9:35 pm 21:35 Clear 78 25.6 60 15.8 55 55 S 12 19 29.56 1001 10 16.0934 0 0
9:55 pm 21:55 Clear 77 25.1 61 15.9 57 57 S 12 19 29.56 1001 10 16.0934 0 0
10:15 pm 22:15 Clear 77 25 61 16.1 58 58 S 15 24 29.56 1001 10 16.0934 0 0
10:35 pm 22:35 Clear 77 24.8 61 16.3 59 59 S 13 20 29.56 1001 10 16.0934 0 0
10:55 pm 22:55 Clear 76 24.5 61 16.3 60 60 S 13 20 29.59 1002 10 16.0934 0 0
11:15 pm 23:15 Clear 76 24.5 61 16.3 60 60 S 15 24 29.56 1001 10 16.0934 0 0
11:35 pm 23:35 Clear 75 24.1 61 16.3 62 62 S 15 24 29.56 1001 10 16.0934 0 0
11:55 pm 23:55 Clear 75 23.8 61 16.2 63 63 S 15 24 29.56 1001 10 16.0934 0 0

Powered by AerisWeather